Regional Weather Roundup
Issued by NWS Charleston, WV

Home | Current Version | Previous Version | Text Only | Print | Product List | Glossary Off
Versions: 1 2 3 4 5 6 7 8 9 10 11 12 13 14 15 16 17 18 19 20 21 22 23 24 25 26 27 28 29 30 31 32 33 34 35 36 37 38 39 40 41 42 43 44 45 46 47 48 49 50

000
ASUS41 KRLX 110010
RWRRLX
West Virginia Regional Weather Roundup
National Weather Service Charleston WV
700 PM EST WED FEB 10 2016

Note: "fair" indicates few or no clouds below 12,000 feet with no
significant weather and/or obstructions to visibility.

WVZ003-110100-
Northern Panhandle of West Virginia

CITY           SKY/WX    TMP DP  RH WIND       PRES   REMARKS
WHEELING       MOCLDY    17   9  70 W15G22    29.91R WCI   2
$$

WVZ009-110100-
Northwest West Virginia

CITY           SKY/WX    TMP DP  RH WIND       PRES   REMARKS
PARKERSBURG    LGT SNOW  18  14  84 W6        30.03R FOG     WCI  10
$$

WVZ006-110100-
Western West Virginia

CITY           SKY/WX    TMP DP  RH WIND       PRES   REMARKS
HUNTINGTON     CLOUDY    18   6  59 W9        30.07R WCI   7
$$

WVZ015-110100-
West Central West Virginia

CITY           SKY/WX    TMP DP  RH WIND       PRES   REMARKS
CHARLESTON     FLURRIES  20   8  60 W13G21    30.02R WCI   7
$$

WVZ022-031-110100-
North Central West Virginia

CITY           SKY/WX    TMP DP  RH WIND       PRES   REMARKS
CLARKSBURG     FLURRIES  17  11  77 W10G17    29.94R WCI   5
MORGANTOWN     CLOUDY    17   9  70 VRB5      29.92R WCI  10
$$

WVZ025-035-042-045-110100-
Southern West Virginia

CITY           SKY/WX    TMP DP  RH WIND       PRES   REMARKS
BECKLEY        LGT SNOW  13   7  77 W9        29.89R WCI   1
LOGAN          LGT SNOW  16  10  79 W10G18    29.99R WCI   3
BLUEFIELD      CLOUDY    13   4  67 W14G22    29.87R WCI  -2
LEWISBURG      LGT SNOW  18  10  73 W8        29.89R WCI   7
$$

WVZ047-110100-
Northern Mountains of West Virginia

CITY           SKY/WX    TMP DP  RH WIND       PRES   REMARKS
ELKINS         FLURRIES  15   7  70 W12G21    29.88R WCI   2
$$

WVZ052-110100-
Eastern Panhandle of West Virginia

CITY           SKY/WX    TMP DP  RH WIND       PRES   REMARKS
MARTINSBURG    CLOUDY    22  12  65 W13       29.89R WCI  10
PETERSBURG     CLOUDY    22   7  51 CALM      29.92S
$$



USA.gov is the U.S. government's official web portal to all federal, state and local government web resources and services.